�������ċp�F�����K�X���j�^�v���󋵏��
Date,Time,�ċp�F�����K�X���j�^(cps),����,����(m/s)
2024/03/30,00:00,1.5,���쐼,1.2
2024/03/30,00:10,1.5,���쐼,0.9
2024/03/30,00:20,1.4,�쐼,1.1
2024/03/30,00:30,1.6,��쐼,1.8
2024/03/30,00:40,1.6,��쐼,2.3
2024/03/30,00:50,1.4,�쐼,0.9
2024/03/30,01:00,1.5,�쐼,1.4
2024/03/30,01:10,1.5,�쐼,1.0
2024/03/30,01:20,1.5,�쐼,1.1
2024/03/30,01:30,1.5,�쐼,1.2
2024/03/30,01:40,1.5,�쐼,2.0
2024/03/30,01:50,1.4,�쐼,1.2
2024/03/30,02:00,1.5,�쐼,1.0
2024/03/30,02:10,1.4,���쐼,1.1
2024/03/30,02:20,1.5,���쐼,1.1
2024/03/30,02:30,1.5,��,1.2
2024/03/30,02:40,1.4,���k��,1.7
2024/03/30,02:50,1.5,���k��,2.2
2024/03/30,03:00,1.6,���k��,1.9
2024/03/30,03:10,1.5,���k��,2.3
2024/03/30,03:20,1.5,���k��,1.5
2024/03/30,03:30,1.6,���쐼,1.3
2024/03/30,03:40,1.5,���쐼,1.3
2024/03/30,03:50,1.5,���쐼,1.1
2024/03/30,04:00,1.5,��,1.0
2024/03/30,04:10,1.5,���k��,1.1
2024/03/30,04:20,1.5,���쐼,0.8
2024/03/30,04:30,1.5,���k��,0.9
2024/03/30,04:40,1.5,�쐼,1.0
2024/03/30,04:50,1.6,��,1.4
2024/03/30,05:00,1.5,���쐼,1.5
2024/03/30,05:10,1.5,��,1.3
2024/03/30,05:20,1.5,�쐼,1.1
2024/03/30,05:30,1.5,���쐼,1.3
2024/03/30,05:40,1.5,���쐼,1.0
2024/03/30,05:50,1.5,��,1.0
2024/03/30,06:00,1.6,���k��,1.1
2024/03/30,06:10,1.5,���k��,1.9
2024/03/30,06:20,1.5,���k��,2.4
2024/03/30,06:30,1.6,���k��,2.3
2024/03/30,06:40,1.5,���k��,2.5
2024/03/30,06:50,1.5,���k��,3.1
2024/03/30,07:00,1.5,���k��,3.5
2024/03/30,07:10,1.5,���k��,3.1
2024/03/30,07:20,1.5,���k��,2.7
2024/03/30,07:30,1.5,��,2.8
2024/03/30,07:40,1.7,���k��,3.1
2024/03/30,07:50,1.6,��,2.8
2024/03/30,08:00,1.5,���k��,2.7
2024/03/30,08:10,1.5,���k��,2.5
2024/03/30,08:20,1.6,��,2.4
2024/03/30,08:30,1.5,��,2.6
2024/03/30,08:40,1.6,��,2.4
2024/03/30,08:50,1.5,��,2.3
2024/03/30,09:00,1.5,���k��,1.5
2024/03/30,09:10,1.5,���k��,3.0
2024/03/30,09:20,1.6,���k��,2.6
2024/03/30,09:30,1.4,�k��,3.0
2024/03/30,09:40,1.6,�k�k��,3.6
2024/03/30,09:50,1.6,�k��,3.4
2024/03/30,10:00,1.5,�k��,3.5
2024/03/30,10:10,1.5,���k��,2.8
2024/03/30,10:20,1.6,�k��,3.3
2024/03/30,10:30,1.5,�k��,4.1
2024/03/30,10:40,1.5,���k��,4.0
2024/03/30,10:50,1.6,���k��,3.3
2024/03/30,11:00,1.5,���k��,4.2
2024/03/30,11:10,1.5,���k��,3.2
2024/03/30,11:20,1.4,���k��,2.9
2024/03/30,11:30,1.5,���k��,4.3
2024/03/30,11:40,1.5,���k��,4.8
2024/03/30,11:50,1.4,���k��,4.3
2024/03/30,12:00,1.5,���k��,5.8
2024/03/30,12:10,1.6,���k��,5.3
2024/03/30,12:20,1.5,���k��,5.3
2024/03/30,12:30,1.5,���k��,6.3
2024/03/30,12:40,1.5,���k��,5.6
2024/03/30,12:50,1.5,���k��,4.9
2024/03/30,13:00,1.5,���k��,6.1
2024/03/30,13:10,1.5,���k��,4.9
2024/03/30,13:20,1.5,���k��,3.8
2024/03/30,13:30,1.5,���k��,4.4
2024/03/30,13:40,1.6,���k��,4.0
2024/03/30,13:50,1.6,���k��,4.9
2024/03/30,14:00,1.5,���k��,4.4
2024/03/30,14:10,1.6,���k��,4.7
2024/03/30,14:20,1.6,���k��,3.2
2024/03/30,14:30,1.5,���k��,4.4
2024/03/30,14:40,1.4,���k��,3.1
2024/03/30,14:50,1.5,���k��,3.3
2024/03/30,15:00,1.5,���k��,3.8
2024/03/30,15:10,1.5,���k��,2.8
2024/03/30,15:20,1.6,�k��,4.9
2024/03/30,15:30,1.6,�k��,3.7
2024/03/30,15:40,1.5,�k��,4.3
2024/03/30,15:50,1.5,�k��,3.0
2024/03/30,16:00,1.5,�k��,3.4
2024/03/30,16:10,1.6,�k��,3.6
2024/03/30,16:20,1.6,�k��,2.7
2024/03/30,16:30,1.5,�k�k��,2.8
2024/03/30,16:40,1.5,�k�k��,3.1
2024/03/30,16:50,1.5,�k��,2.5
2024/03/30,17:00,1.5,�k��,1.2
2024/03/30,17:10,1.6,�k,1.2
2024/03/30,17:20,1.5,���쓌,1.2
2024/03/30,17:30,1.5,�쓌,2.2
2024/03/30,17:40,1.5,�쓌,1.6
2024/03/30,17:50,1.5,���k��,1.5
2024/03/30,18:00,1.4,�k��,4.2
2024/03/30,18:10,1.5,�k��,2.1
2024/03/30,18:20,1.5,�k�k��,1.3
2024/03/30,18:30,1.5,�k,1.5
2024/03/30,18:40,1.5,�k,2.6
2024/03/30,18:50,1.6,�k,1.4
2024/03/30,19:00,1.5,�k��,1.3
2024/03/30,19:10,1.5,���k��,0.9
2024/03/30,19:20,1.5,���k��,1.2
2024/03/30,19:30,1.4,�k�k��,1.4
2024/03/30,19:40,1.5,���k��,0.9
2024/03/30,19:50,1.6,���k��,0.7
2024/03/30,20:00,1.5,��쓌,0.6
2024/03/30,20:10,1.5,-,CALM
2024/03/30,20:20,1.5,��,1.2
2024/03/30,20:30,1.5,���쐼,1.0
2024/03/30,20:40,1.6,-,CALM
2024/03/30,20:50,1.5,-,CALM
2024/03/30,21:00,1.5,��,1.0
2024/03/30,21:10,1.4,��쐼,0.6
2024/03/30,21:20,1.5,�쓌,0.7
2024/03/30,21:30,1.5,���쐼,1.1
2024/03/30,21:40,1.5,���k��,0.6
2024/03/30,21:50,1.5,�k��,1.0
2024/03/30,22:00,1.6,���쐼,0.6
2024/03/30,22:10,1.5,�쐼,1.0
2024/03/30,22:20,1.4,��,1.7
2024/03/30,22:30,1.6,��,2.2
2024/03/30,22:40,1.4,��,1.9
2024/03/30,22:50,1.4,�쐼,1.5
2024/03/30,23:00,1.5,�쐼,1.6
2024/03/30,23:10,1.7,���쐼,1.4
2024/03/30,23:20,1.6,���쐼,1.2
2024/03/30,23:30,1.5,���쐼,0.9
2024/03/30,23:40,1.5,���쐼,1.0
2024/03/30,23:50,1.6,�쐼,0.7
